Terug naar catalogus

STARLINK-31148

ActiefCommunicatieVLEO
NORAD 58741·PAYLOAD·🇺🇸 United States

Gelanceerd Jan 7, 2024 vanaf Cape Canaveral Space Force Station

Loading…

Volgende Passages (komende 24 uur)

TLE

VersSource: CelesTrak SupGP

Epoch: Sep 14, 2026, 21:29 UTC

1 58741C 24005P   26257.89562500  .00037872  00000+0  13720-2 0  2571
2 58741  43.0001 230.9634 0001108 257.7418  90.9920 15.27552309    15

Volg STARLINK-31148 in realtime met AllMySat

Download on the App Store